GALAXY 30 (G-30)

Last updated on Wed Sep 23 2026 00:03:34 GMT+0000 (Coordinated Universal Time)

1 46114U 20056C 26265.56489735 .00000000 00000+0 00000+0 0 9995 2 46114 0.0256 156.4156 0002371 27.0092 256.3672 1.00270893 22265
UTC large
Height (km)
Speed (km/s)
/
Latitude / Longitude
Inclination (degrees)
Orbital Period (minutes)
Azimuth
Elevation
Range (km)
Doppler Factor

Next 0 passes for location: London (51.5072 / 0.1276)

No passes found over London.
GALAXY 30 (G-30)